Weather in Ural'sk

Russia / Republic of Bashkortostan     54°07′21″N   59°07′30″E
temp.,
°C
wind,
m/s
gust,
m/s
humid.,
%
clouds,
%
prec.,
mm/h
press.,
hPa
HPBL,
m
28 february, sun
sun2823:00−13se3696100 1.4 1009253
02:00−14e229799 0.3 100728
05:00−14ne2296100 0.6 100559
08:00−15nne3396100 0.3 100470
11:00−12nne3594100 0.8 1004244
14:00−10nne359399 0.4 1003313
17:00−10ne359499 0.8 1003350
20:00−12nne359695 0.3 1005115
1 march, mon
mon123:00−15nne339687 0.4 100845
02:00−17nne229684 0.0 101020
05:00−17ne119786 0.1 101220
08:00−17ene119790 0.1 101421
11:00−15ese119286 0.3 1015194
14:00−13sse1189100 0.1 1015278
17:00−12sse2294100 0.2 1016231
20:00−15se119795 0.2 101720
2 march, tue
tue223:00−16ese119796 0.4 101820
02:00−16sw119798 0.1 101720
05:00−17w119795 0.1 101720
08:00−20w119857 0.0 101720
11:00−16w128929 0.0 1015109
14:00−12sw248711 0.0 1013326
17:00−12ssw479434 0.0 1012176
20:00−12ssw349088 0.0 101165
3 march, wed
wed323:00−11sw479194 0.0 1011206
02:00−13ssw5893100 0.0 1009217
05:00−14ssw5994100 0.0 1008247
08:00−12ssw51195100 0.1 1006307
11:00−8ssw61293100 0.1 1004538
14:00−3ssw81294100 0.4 1002804
17:00−3s71293100 0.9 1000756
20:00−4s61295100 0.6 998499
4 march, thu
thu423:00−5ssw4896100 0.9 999241
02:00−6wsw51188100 0.1 999260
05:00−9w61183100 0.1 1000263
08:00−11wnw41183100 0.0 1002295
11:00−8nw61278100 0.0 1004844
14:00−6nw697691 0.0 10051199
17:00−7nw498094 0.1 1007395
20:00−13wnw4884100 0.0 1010129